Location: *
(34.9188°S, 44.1645°W)
Time: 23:28:32
(UTC+00:00)

Daily predictions for brighter satellites

Satellite Brightness Start Highest point End
(mag) Time Altitude Azimuth Time Altitude Azimuth Time Altitude Azimuth
USA 306 4.2 21:15:02 10° SSW 21:18:49 27° SE 21:22:33 10° E
SL-16 R/B 2.5 21:15:34 10° NNW 21:21:14 78° WSW 21:26:58 10° SSE
ATLAS 5 CENTAUR R/B 3.8 21:19:13 10° S 21:21:54 14° SE 21:24:23 10° ESE
Lacrosse 5 3.8 21:19:06 10° S 21:22:12 16° SSE 21:25:18 10° ESE
Okean O Rocket 2.0 21:18:53 10° S 21:23:23 73° WSW 21:27:50 10° NNW
Cosmos 1437 3.1 21:20:43 10° NNE 21:23:31 36° E 21:26:20 10° SSE
GEOS 3 Rocket 3.5 21:18:40 10° SE 21:23:45 72° ENE 21:28:50 10° NNW
SeaSat 1 3.3 21:22:22 10° SE 21:26:40 29° ENE 21:30:55 10° NNE
PEGASUS R/B 4.5 21:24:12 10° SSE 21:29:02 75° WSW 21:31:54 10° NNW
Helios 1A Rocket 3.8 21:26:28 10° SE 21:29:59 27° E 21:33:29 10° NNE
Cosmos 1733 3.2 21:28:47 10° S 21:32:43 73° E 21:36:36 10° NNE
Cosmos 1455 Rocket 4.2 21:28:59 10° SSE 21:32:44 25° ESE 21:36:24 10° NE
CZ-4C R/B 4.5 21:30:05 10° WSW 21:33:26 18° WNW 21:36:35 10° NNW
OAO 3 Rocket 3.1 21:28:57 10° W 21:33:41 88° S 21:38:03 12° E
Cosmos 1943 3.9 21:34:52 10° NNE 21:39:44 30° ENE 21:44:39 10° SE
CZ-4 R/B 2.3 21:40:03 10° SE 21:43:44 28° E 21:47:24 10° NNE
NOAA 11 4.2 21:39:31 10° SSE 21:45:05 75° ENE 21:50:35 10° N
USA 307 3.4 21:44:45 10° SSW 21:48:59 46° SE 21:51:59 18° ENE
Okean 1 Rocket 4.0 21:46:03 10° SSW 21:50:24 52° W 21:54:45 10° N
Cosmos 1975 Rocket 3.0 21:46:20 10° N 21:50:43 83° E 21:55:14 10° S
Cosmos 1340 Rocket 3.0 21:47:11 10° SSW 21:51:10 75° W 21:55:05 10° N
USA 308 3.3 21:48:15 10° SW 21:52:31 49° SE 21:55:21 19° ENE
Cosmos 1758 4.0 21:51:56 10° SSE 21:55:36 32° ESE 21:58:07 17° NE
YAOGAN 1 3.0 21:57:47 10° SSE 22:01:54 38° E 22:05:56 10° NNE
Cosmos 1603 3.6 22:02:16 10° N 22:07:47 65° ENE 22:13:24 10° SSE
Cosmos 2369 Rocket 2.9 22:03:19 10° S 22:08:26 34° ESE 22:10:45 25° ENE
Cosmos 1726 3.1 22:05:38 10° SSE 22:08:44 27° ESE 22:08:44 27° ESE
DMSP B5D2-2 4.3 22:07:36 10° N 22:12:51 73° WNW 22:18:09 10° SSW
Cosmos 2084 Rocket 4.3 22:10:18 10° N 22:14:21 31° ENE 22:14:41 31° ENE
Cosmos 2297 4.3 22:14:09 10° SSW 22:19:51 60° WNW 22:25:28 10° N
In-Cosmos 22 4.2 22:15:48 10° N 22:21:20 60° E 22:27:04 10° SSE
CZ-2C R/B 3.5 22:16:29 10° N 22:21:53 52° W 22:27:15 10° SSW
OAO 2 Rocket 3.2 22:17:25 10° WNW 22:22:19 67° NNE 22:24:13 37° E
SL-4 R/B 3.9 22:21:07 10° S 22:22:51 13° SSE 22:23:00 13° SSE
Cosmos 1939 Rocket 4.0 22:20:03 10° S 22:23:58 47° WSW 22:27:53 10° NNW
Cosmos 1544 Rocket 3.5 22:22:19 10° S 22:26:49 69° E 22:28:59 29° NNE
Nadezhda 4 Rocket 3.9 22:27:45 10° N 22:33:55 66° E 22:40:14 10° SSE
Okean-O 3.2 22:32:08 10° S 22:36:35 60° WSW 22:40:58 10° NNW
Cosmos 1025 Rocket 3.1 22:32:29 10° N 22:36:53 79° W 22:41:19 10° S
Cosmos 1470 3.7 22:34:21 10° SSW 22:38:15 48° W 22:42:00 11° NNW
Meteor 2-10 4.2 22:32:57 10° S 22:38:47 86° W 22:43:48 14° N
CSL-04 Rocket 3.6 22:34:13 10° SSE 22:39:30 59° ENE 22:44:47 10° N
USA 215 3.9 22:40:40 32° NE 22:40:40 32° NE 22:45:32 10° N
CSL-04 Debris 4.1 22:34:56 10° SSE 22:40:24 65° ENE 22:45:47 10° N
OAO 1 Rocket 4.3 22:36:47 10° WNW 22:42:09 84° N 22:43:25 53° E
CZ-2C R/B 2.8 22:39:39 10° SSE 22:44:31 86° ENE 22:49:31 10° NNW
Cosmos 1656 Rocket 4.3 22:39:33 10° S 22:44:16 35° SE 22:44:16 35° SE
Aurora 2 Rocket 4.4 22:39:13 10° WNW 22:47:23 39° N 22:49:09 34° NNE
Atlas Centaur 2 2.5 22:42:09 10° WNW 22:48:48 51° N 22:49:34 47° NNE
USA 305 3.8 22:50:11 10° WSW 22:54:20 43° NW 22:54:54 41° NNW
Cosmos 1536 Rocket 3.9 22:50:51 10° NNW 22:55:18 66° W 22:59:47 10° S
Delta 2 Rocket 3.8 22:50:03 10° W 22:55:48 85° NNW 22:56:23 72° ENE
Cosmos 1371 Rocket 4.1 22:51:48 10° SSW 22:57:06 73° WNW 22:58:45 45° N
Cosmos 1943 Rocket 2.8 22:51:48 10° SSW 22:57:23 54° WNW 23:00:28 26° N
USA 306 3.9 22:54:51 10° WSW 22:58:54 39° NW 22:59:18 38° NW
Hubble Space Telescope 2.7 22:55:44 10° WNW 22:58:09 21° NW 22:58:09 21° NW
SeaSat 1 4.2 22:59:43 10° S 23:04:05 32° WSW 23:08:26 10° WNW
Lacrosse 5 1.9 23:00:44 10° SW 23:05:36 75° S 23:05:36 75° S
ATLAS 5 CENTAUR R/B 1.8 23:02:18 10° SSW 23:07:02 72° WSW 23:07:02 72° WSW
Cosmos 1953 3.3 23:05:47 10° SSW 23:09:00 47° SW 23:09:00 47° SW
H-2A R/B 2.1 23:05:11 10° S 23:10:10 72° WSW 23:11:17 52° NW
Cosmos 2056 Rocket 3.9 23:05:43 10° SSW 23:11:08 63° WNW 23:12:10 52° NNW
ARGOS 3.3 23:08:19 10° SSE 23:12:48 62° SSE 23:12:48 62° SSE
Cosmos 1420 Rocket 4.3 23:08:30 10° SSW 23:12:52 58° S 23:12:52 58° S
OAO 3 Rocket 4.1 23:12:30 10° W 23:15:51 42° WNW 23:15:51 42° WNW
CZ-4 R/B 4.1 23:15:27 10° SSW 23:18:31 20° WSW 23:21:36 10° WNW
Cosmos 371 Rocket 4.4 23:27:52 10° SSW 23:31:46 42° WSW 23:31:46 42° WSW
Cosmos 2026 Rocket 4.4 23:39:47 55° S 23:39:47 55° S 23:44:34 10° S
Cosmos 1092 Rocket 4.5 23:39:35 45° NW 23:41:13 58° W 23:47:32 10° S
Cosmos 2369 Rocket 3.8 23:47:35 10° SW 23:52:15 27° WNW 23:52:36 27° WNW
